Regional Weather Roundup
Issued by NWS

Home | Current Version | Previous Version | Graphics & Text | Print | Product List | Glossary On
Versions: 1 2 3 4 5 6 7 8 9 10 11 12 13 14 15 16 17 18 19 20 21 22 23 24 25 26 27 28 29 30 31 32 33 34 35 36 37 38 39 40 41 42 43 44 45 46 47 48 49 50
103
ASUS45 KTFX 221210
RWRMT
MONTANA REGIONAL WEATHER ROUNDUP
NATIONAL WEATHER SERVICE GREAT FALLS MT
500 AM MST WED FEB 22 2017

NOTE: "FAIR" INDICATES FEW OR NO CLOUDS BELOW 12000 FEET WITH NO
SIGNIFICANT WEATHER AND/OR OBSTRUCTIONS TO VISIBILITY.

MTZ001>007-043-221300-
WEST OF THE DIVIDE

CITY           SKY/WX    TMP DP  RH WIND       PRES   REMARKS
KALISPELL      MOCLDY    31  29  92 S6        29.91R WCI  25
MISSOULA       CLOUDY    33  32  96 SE3       29.96S
BUTTE          LGT SNOW  28  24  85 CALM      29.88R FOG
MULLAN PASS    LGT SNOW  24  22  91 VRB5      29.86R FOG
ANACONDA         N/A     30  23  74 SW9       29.89R WCI  22
DEER LODGE       N/A     30  28  93 CALM      29.92R
EUREKA           N/A     28  27  93 CALM      29.93R VSB 0
HAMILTON         N/A     34  28  80 CALM      29.94S
LIBBY            N/A     30  30 100 CALM      29.95R
RONAN            N/A     34  31  89 SE1       29.97R
$$

MTZ008-052>055-221300-
SOUTHWEST MONTANA

CITY           SKY/WX    TMP DP  RH WIND       PRES   REMARKS
BOZEMAN        PTCLDY    32  24  72 N5        29.87R
DILLON         CLOUDY    31  21  66 SW16      29.87S WCI  20
W YELLOWSTONE  CLOUDY    25  21  86 SW8       29.89S WCI  16
ENNIS          CLOUDY    32  18  55 S12       29.93R WCI  23
THREE FORKS      N/A     37  37 100 W8        29.88R WCI  31
$$

MTZ009-010-012-014-046-048-049-054-221300-
EAST SLOPES AND CENTRAL MONTANA

CITY           SKY/WX    TMP DP  RH WIND       PRES   REMARKS
CUT BANK       MOCLDY    27  23  85 CALM      29.81R
GREAT FALLS    CLOUDY    31  29  92 SW8       29.84R WCI  23
MALMSTROM AFB  CLOUDY    31  32 100 SW6       29.85R WCI  26
HELENA         CLOUDY    36  27  69 W16       29.87R WCI  26
AUGUSTA        MOCLDY    28  29 100 W13       29.82R WCI  18
BOWMANS CRNR   CLOUDY    28  28 100 S8        29.81R WCI  20
CHOTEAU          N/A     30  28  93 S6        29.84R WCI  24
POWER          MOCLDY    29  29 100 W5        29.82R
RAYNESFORD     LGT SNOW  33  31  94 W9        29.83R FOG     WCI  25
ULM            MOCLDY    32  32 100 MISG      29.84R
$$

MTZ011-013-016-021-045-047-050-051-221300-
NORTH CENTRAL MONTANA

CITY           SKY/WX    TMP DP  RH WIND       PRES   REMARKS
HAVRE          LGT SNOW  32  31  96 E5        29.86R FOG
LEWISTOWN      LGT SNOW  30  30 100 W9        29.81R FOG     WCI  22
N BAR RANCH    CLOUDY    30  27  86 NW16G22   29.79R WCI  19
CHINOOK          N/A     32  32 100 N3        29.88R
DENTON         LGT SNOW  32  31  98 NW17G28   29.79R WCI  20
FORT BENTON      N/A     34  32  93 CALM      29.87R
GEYSER         FLURRIES  31  29  94 W14       29.81R WCI  21
GRASS RANGE    FLURRIES  32  30  91 W15       29.76R WCI  22
JUDITH GAP     LGT SNOW  29  29  96 N13       29.79R WCI  19
ROY            LGT SNOW  31  31  99 MISG      29.78R FOG
STANFORD       FLURRIES  31  30  94 NW16      29.80R WCI  20
WINIFRED       LGT SNOW  30 N/A N/A NW9       29.81R VSB 7/8 WCI  22
$$

MTZ017>020-022>027-061-062-221300-
NORTHEAST MONTANA

CITY           SKY/WX    TMP DP  RH WIND       PRES   REMARKS
GLASGOW        LGT SNOW  31  29  92 NW9       29.83R FOG     WCI  23
JORDAN           N/A     32  30  92 N9        29.78R WCI  24
SIDNEY         LGT SNOW  32  31  96 N14       29.77R FOG     WCI  22
WOLF POINT     LGT SNOW  33  30  88 NE10      29.82R FOG     WCI  25
PLENTYWOOD       N/A     30  27  86 N15       29.81R WCI  19
POPLAR           N/A     30  30 100 N9        29.82R WCI  22
$$

MTZ028>42-056>058-221300-
SOUTHCENTRAL AND SOUTHEAST MONTANA

CITY           SKY/WX    TMP DP  RH WIND       PRES   REMARKS
BAKER          FOG       33  33 100 NW9       29.70R VSB 1/4 WCI  25
BILLINGS       CLOUDY    39  24  55 W9        29.79R
LIVINGSTON     CLOUDY    33  25  72 W16       29.82R WCI  23
MILES CITY     CLOUDY    34  32  92 S8        29.73R WCI  27
BIG TIMBER     CLOUDY    34  25  69 W22G28    29.84R WCI  22
FORSYTH          N/A     34  34 100 SW5       29.74R
HARLOWTON      CLOUDY    34  25  70 W23       29.80R WCI  22
LAUREL           N/A     41  21  44 W10       29.80R
$$

REGIONAL REPORTS...DAKOTAS

CITY           SKY/WX    TMP DP  RH WIND       PRES   REMARKS
WILLISTON      LGT SNOW  32  31  96 N14       29.79R FOG     WCI  22
MINOT          LGT SNOW  32  30  92 N16       29.74S FOG     WCI  21
DICKINSON      LGT SNOW  32  31  96 NE12      29.66F FOG     WCI  23
BEACH            N/A    N/A N/A N/A MISG        N/A
CROSBY         CLOUDY    30  30 100 N14       29.83R WCI  20
TIOGA          CLOUDY    30  30 100 NE10      29.78R WCI  21
WATFORD CITY   LGT SNOW  32  32 100 NE10      29.77R WCI  24
BISMARCK       LGT RAIN  35  34  96 NW5       29.70S
GRAND FORKS    CLOUDY    33  29  85 N12       29.71R FOG     WCI  24
FARGO          CLOUDY    34  34 100 N13       29.68R FOG     WCI  25
BUFFALO SD       N/A     36  34  92 W9        29.63R WCI  29
RAPID CITY     PTCLDY    44  32  62 NW10      29.70R
$$

REGIONAL REPORTS...WYOMING/IDAHO/WASHINGTON

CITY           SKY/WX    TMP DP  RH WIND       PRES   REMARKS
GILLETTE       CLOUDY    38  25  59 W10       29.76R WCI  31
SHERIDAN       PTCLDY    38  17  42 W12       29.77R WCI  30
BUFFALO WY     CLOUDY    39  13  34 N13       29.76R WCI  31
CODY           CLEAR     36  18  48 W14G25    29.81F WCI  27
YELLOWSTONE LA   N/A     19  15  84 VRB5      29.88R
IDAHO FALLS    CLOUDY    30  27  88 S16       29.98R WCI  19
SALMON         CLOUDY    30  28  93 S3        29.94S
BOISE          MOCLDY    32  26  78 SE5       30.03F
SPOKANE        DRZL/FOG  32  31  96 S3        30.00R VSB 1
$$

REGIONAL REPORTS...ALBERTA

CITY           SKY/WX    TMP DP  RH WIND       PRES   REMARKS
EDMONTON       CLOUDY    25  19  80 NW3       29.94R
CALGARY        FOG       27  25  93 N17       29.86R VSB 1/2 WCI  14
LETHBRIDGE     CLOUDY    30 N/A N/A W3        29.84R
MEDICINE HAT   CLOUDY    32  30  93 NE2       29.86R
MILK RIVER       N/A     25  25 100 NW2         N/A
ONEFOUR          N/A     30  30 100 E6          N/A  WCI  24
$$

REGIONAL REPORTS...SASKATCHEWAN

CITY           SKY/WX    TMP DP  RH WIND       PRES   REMARKS
SWIFT CURRENT  MOCLDY    27  25  93 W2        29.83R
REGINA         CLOUDY    28  25  86 NW5       29.85R
SASKATOON      FLURRIES  30  27  86 W6        29.87S WCI  24
CYPRESS HILLS    N/A     25  21  86 N1          N/A
VAL MARIE        N/A     28  27  93 N10         N/A  WCI  19
ROCKGLEN         N/A     27  25  93 N9          N/A  WCI  17
$$




USA.gov is the U.S. government's official web portal to all federal, state and local government web resources and services.